Weather History for Fargo, ND

Change the Weather History Date:

Thursday, May 1, 2014

  Actual Average Record
Temperature  
Mean Temperature 48 °F 52 °F  
Max Temperature 56 °F 65 °F 97 °F (1959)
Min Temperature 39 °F 39 °F 14 °F (1890)
Degree Days  
Heating Degree Days 17 13  
Month to date heating degree days 17 13  
Since 1 July heating degree days 9343 8469  
Cooling Degree Days 0 0  
Month to date cooling degree days 0 0  
Year to date cooling degree days 0 3  
Moisture  
Dew Point 37 °F    
Average Humidity 73    
Maximum Humidity 92    
Minimum Humidity 54    
Precipitation  
Precipitation T in 0.07 in 1.22 in (1902)
Month to date precipitation T 0.07  
Year to date precipitation 5.03 4.07  
Snow  
Snow 0.00 in 0.00 in 1.00 in (1909)
Month to date snowfall 0.0 0.0  
Since 1 July snowfall 34.9 50.4  
Snow Depth 0.00 in    
Sea Level Pressure  
Sea Level Pressure 29.92 in    
Wind  
Wind Speed 16 mph (NNW)    
Max Wind Speed 29 mph    
Max Gust Speed 35 mph    
Visibility 10 miles    
Events      
T = Trace of Precipitation, MM = Missing Value Source: NWS Daily Summary

Daily Weather History Graph

Daily Weather History Graph

Search for Another Location

Airport:

Trip Planner

Search our weather history database for the weather conditions in past years. The results will help you decide how hot, cold, wet, or windy it might be!

Date:

Astronomy

May. 01, 2014 Rise Set
Actual Time 6:11 AM CDT 8:37 PM CDT
Civil Twilight 5:38 AM CDT 9:11 PM CDT
Nautical Twilight 4:55 AM CDT 9:54 PM CDT
Astronomical Twilight 4:07 AM CDT 10:42 PM CDT
Moon 7:56 AM CDT (5/1) 11:15 PM CDT (5/1)
Length of Visible Light 15h 33m
Length of Day
14h 25m
Waxing Crescent, 7% of the Moon is Illuminated
May 1
Waxing Crescent
May 6
First Quarter
May 14
Full
May 21
Last Quarter
May 28
New

Hourly Weather History & Observations

Time (CDT) Temp. Windchill Dew Point Humidity Pressure Visibility Wind Dir Wind Speed Gust Speed Precip Events Conditions
12:53 AM 41.0 °F 31.6 °F 37.0 °F 86% 29.95 in 10.0 mi North 20.7 mph - N/A   Overcast
1:32 AM 41.0 °F 31.6 °F 37.0 °F 86% 29.92 in 10.0 mi North 20.7 mph - N/A   Overcast
1:53 AM 39.9 °F 31.4 °F 36.0 °F 86% 29.95 in 10.0 mi North 16.1 mph - N/A   Overcast
2:19 AM 39.9 °F 31.8 °F 37.0 °F 89% 29.92 in 10.0 mi NNW 15.0 mph - N/A   Overcast
2:53 AM 39.9 °F 30.5 °F 37.0 °F 89% 29.94 in 10.0 mi NNW 19.6 mph - N/A   Overcast
3:53 AM 39.9 °F 31.1 °F 36.0 °F 86% 29.93 in 10.0 mi North 17.3 mph - N/A   Overcast
4:35 AM 39.9 °F 30.8 °F 36.0 °F 86% 29.90 in 10.0 mi North 18.4 mph 28.8 mph N/A   Overcast
4:46 AM 39.9 °F 31.1 °F 36.0 °F 86% 29.90 in 10.0 mi NNW 17.3 mph - N/A   Overcast
4:53 AM 39.9 °F 31.1 °F 36.0 °F 86% 29.93 in 10.0 mi NNW 17.3 mph - N/A   Overcast
5:53 AM 39.0 °F 29.9 °F 36.0 °F 89% 29.94 in 10.0 mi NNW 17.3 mph - N/A   Overcast
6:53 AM 39.0 °F 29.9 °F 35.1 °F 86% 29.94 in 10.0 mi NNW 17.3 mph - N/A   Overcast
7:53 AM 39.0 °F 28.8 °F 35.1 °F 86% 29.95 in 10.0 mi NNW 21.9 mph - N/A   Overcast
8:53 AM 39.9 °F 30.8 °F 36.0 °F 86% 29.96 in 10.0 mi NNW 18.4 mph - N/A   Overcast
9:49 AM 42.8 °F 33.8 °F 35.6 °F 76% 29.93 in 10.0 mi North 21.9 mph 29.9 mph N/A   Overcast
9:53 AM 43.0 °F 34.5 °F 37.0 °F 80% 29.95 in 10.0 mi North 19.6 mph 29.9 mph N/A   Overcast
10:53 AM 48.0 °F - 37.0 °F 66% 29.95 in 10.0 mi North 27.6 mph 34.5 mph N/A   Mostly Cloudy
11:12 AM 46.9 °F - 37.0 °F 68% 29.93 in 10.0 mi North 25.3 mph 32.2 mph N/A   Mostly Cloudy
11:40 AM 48.0 °F - 37.0 °F 66% 29.93 in 10.0 mi North 23.0 mph 33.4 mph 0.00 in   Overcast
11:50 AM 46.4 °F 38.5 °F 35.6 °F 66% 29.93 in 10.0 mi NNW 21.9 mph 31.1 mph 0.00 in   Overcast
11:53 AM 46.9 °F - 37.0 °F 68% 29.95 in 10.0 mi NNW 24.2 mph 31.1 mph 0.00 in   Overcast
12:15 PM 50.0 °F - 37.9 °F 63% 29.93 in 10.0 mi North 19.6 mph 27.6 mph N/A   Overcast
12:53 PM 50.0 °F - 37.9 °F 63% 29.94 in 10.0 mi North 24.2 mph - N/A   Mostly Cloudy
1:53 PM 52.0 °F - 39.0 °F 61% 29.94 in 10.0 mi North 21.9 mph - N/A   Mostly Cloudy
2:53 PM 52.0 °F - 39.0 °F 61% 29.93 in 10.0 mi North 20.7 mph 27.6 mph N/A   Mostly Cloudy
3:53 PM 54.0 °F - 37.0 °F 53% 29.92 in 10.0 mi NNW 20.7 mph 31.1 mph N/A   Scattered Clouds
4:53 PM 55.0 °F - 39.9 °F 57% 29.91 in 10.0 mi North 17.3 mph - N/A   Mostly Cloudy
5:53 PM 55.0 °F - 39.0 °F 55% 29.90 in 10.0 mi NNW 18.4 mph - N/A   Scattered Clouds
6:53 PM 55.0 °F - 39.0 °F 55% 29.89 in 10.0 mi North 10.4 mph - N/A   Clear
7:53 PM 53.1 °F - 39.9 °F 61% 29.88 in 10.0 mi North 9.2 mph - N/A   Clear
8:53 PM 48.9 °F - 37.9 °F 66% 29.87 in 10.0 mi NW 3.5 mph - N/A   Clear
9:53 PM 46.0 °F 44.8 °F 39.0 °F 76% 29.86 in 10.0 mi SW 3.5 mph - N/A   Clear
10:53 PM 42.1 °F 38.4 °F 37.0 °F 82% 29.85 in 10.0 mi SSW 5.8 mph - N/A   Clear
11:53 PM 44.1 °F 40.1 °F 37.9 °F 79% 29.82 in 10.0 mi South 6.9 mph - N/A   Mostly Cloudy